| time (UTC) | temp F | wind direction | speed MPH | gust MPH | rain 1hr in | rain 24hr in | rain mn in | humidity % | barometer mb |
| 20260904193525 | 74 | 116 | 2.0 | 5.0 | 0.00 | 0.01 | 0.01 | 58 | 1013.1 |
| 20260904192625 | 74 | 93 | 1.0 | 5.0 | 0.00 | 0.01 | 0.01 | 60 | 1013.1 |
| 20260904191725 | 73 | 194 | 1.0 | 4.0 | 0.00 | 0.01 | 0.01 | 62 | 1013.2 |
| 20260904190826 | 72 | 92 | 1.0 | 4.0 | 0.00 | 0.01 | 0.01 | 62 | 1013.2 |
| 20260904185925 | 73 | 169 | 1.0 | 4.0 | 0.00 | 0.01 | 0.01 | 61 | 1013.2 |
| 20260904185026 | 73 | 106 | 1.0 | 4.0 | 0.00 | 0.01 | 0.01 | 63 | 1013.2 |
| 20260904183225 | 71 | 217 | 2.0 | 5.0 | 0.00 | 0.01 | 0.01 | 66 | 1013.2 |
| 20260904182325 | 70 | 223 | 2.0 | 5.0 | 0.00 | 0.01 | 0.01 | 68 | 1013.2 |
| 20260904180525 | 70 | 106 | 1.0 | 4.0 | 0.00 | 0.01 | 0.01 | 68 | 1013.3 |
| 20260904175625 | 70 | 149 | 1.0 | 4.0 | 0.00 | 0.01 | 0.01 | 68 | 1013.3 |
| 20260904174725 | 69 | 116 | 1.0 | 5.0 | 0.00 | 0.01 | 0.01 | 71 | 1013.4 |
| 20260904173825 | 68 | 126 | 2.0 | 4.0 | 0.00 | 0.01 | 0.01 | 72 | 1013.3 |
| 20260904172925 | 69 | 125 | 1.0 | 8.0 | 0.00 | 0.01 | 0.01 | 72 | 1013.3 |
| 20260904172025 | 68 | 156 | 1.0 | 4.0 | 0.00 | 0.01 | 0.01 | 74 | 1013.2 |
| 20260904170225 | 68 | 145 | 1.0 | 6.0 | 0.00 | 0.01 | 0.01 | 74 | 1013.2 |
| 20260904165325 | 68 | 125 | 1.0 | 3.0 | 0.00 | 0.01 | 0.01 | 75 | 1013.1 |
| 20260904164425 | 67 | 115 | 1.0 | 5.0 | 0.00 | 0.01 | 0.01 | 75 | 1013.1 |
| 20260904163525 | 66 | 149 | 1.0 | 3.0 | 0.00 | 0.01 | 0.01 | 77 | 1013.0 |
| 20260904161725 | 66 | 118 | 1.0 | 4.0 | 0.00 | 0.01 | 0.01 | 78 | 1013.0 |
| 20260904160825 | 65 | 111 | 1.0 | 4.0 | 0.00 | 0.01 | 0.01 | 79 | 1013.1 |
| 20260904155025 | 65 | 142 | 0.0 | 3.0 | 0.00 | 0.01 | 0.01 | 80 | 1013.0 |
| 20260904154125 | 64 | 116 | 1.0 | 3.0 | 0.00 | 0.01 | 0.01 | 83 | 1012.9 |
| 20260904153225 | 63 | 105 | 1.0 | 3.0 | 0.00 | 0.01 | 0.01 | 84 | 1012.8 |
| 20260904152325 | 62 | 106 | 1.0 | 5.0 | 0.00 | 0.01 | 0.01 | 86 | 1012.7 |
| 20260904151425 | 60 | 103 | 0.0 | 3.0 | 0.00 | 0.01 | 0.01 | 89 | 1012.7 |
| 20260904150525 | 60 | 0 | 0.0 | 2.0 | 0.00 | 0.01 | 0.01 | 90 | 1012.6 |
| 20260904145625 | 60 | 0 | 0.0 | 1.0 | 0.00 | 0.01 | 0.01 | 90 | 1012.6 |
| 20260904144725 | 60 | 0 | 0.0 | 0.0 | 0.00 | 0.01 | 0.01 | 90 | 1012.5 |
| 20260904143826 | 60 | 0 | 0.0 | 0.0 | 0.00 | 0.01 | 0.01 | 90 | 1012.4 |
| 20260904142926 | 60 | 0 | 0.0 | 1.0 | 0.00 | 0.01 | 0.01 | 90 | 1012.4 |
| 20260904141125 | 60 | 0 | 0.0 | 1.0 | 0.00 | 0.01 | 0.01 | 91 | 1012.2 |
| 20260904140225 | 60 | 0 | 0.0 | 1.0 | 0.00 | 0.01 | 0.01 | 91 | 1012.0 |
| 20260904135325 | 60 | 0 | 0.0 | 1.0 | 0.00 | 0.01 | 0.01 | 91 | 1011.8 |
| 20260904134425 | 61 | 0 | 0.0 | 4.0 | 0.00 | 0.01 | 0.01 | 91 | 1011.6 |
| 20260904132625 | 61 | 0 | 0.0 | 2.0 | 0.00 | 0.01 | 0.01 | 91 | 1011.5 |
| 20260904131725 | 61 | 0 | 0.0 | 3.0 | 0.00 | 0.01 | 0.01 | 91 | 1011.3 |
| 20260904130826 | 61 | 0 | 0.0 | 2.0 | 0.00 | 0.01 | 0.01 | 91 | 1011.3 |
| 20260904125925 | 61 | 0 | 0.0 | 1.0 | 0.00 | 0.01 | 0.01 | 91 | 1011.3 |
| 20260904125025 | 62 | 0 | 0.0 | 2.0 | 0.00 | 0.01 | 0.01 | 91 | 1011.1 |
| 20260904124125 | 62 | 0 | 0.0 | 1.0 | 0.00 | 0.01 | 0.01 | 91 | 1010.9 |
| 20260904123225 | 62 | 0 | 0.0 | 2.0 | 0.00 | 0.01 | 0.01 | 91 | 1010.9 |
| 20260904122325 | 62 | 0 | 0.0 | 3.0 | 0.00 | 0.01 | 0.01 | 91 | 1010.8 |
| 20260904121425 | 62 | 0 | 0.0 | 3.0 | 0.00 | 0.01 | 0.01 | 91 | 1010.8 |
| 20260904120525 | 62 | 0 | 0.0 | 2.0 | 0.00 | 0.01 | 0.01 | 91 | 1010.8 |
| 20260904115625 | 62 | 0 | 0.0 | 3.0 | 0.00 | 0.01 | 0.01 | 91 | 1010.7 |
| 20260904114725 | 62 | 0 | 0.0 | 1.0 | 0.00 | 0.01 | 0.01 | 91 | 1010.6 |
| 20260904113825 | 62 | 0 | 0.0 | 2.0 | 0.00 | 0.01 | 0.01 | 91 | 1010.7 |
| 20260904112925 | 62 | 0 | 0.0 | 3.0 | 0.00 | 0.01 | 0.01 | 91 | 1010.6 |
| 20260904112025 | 62 | 0 | 0.0 | 2.0 | 0.00 | 0.01 | 0.01 | 91 | 1010.6 |
| 20260904110225 | 62 | 0 | 0.0 | 1.0 | 0.00 | 0.01 | 0.01 | 91 | 1010.6 |
| 20260904105326 | 62 | 0 | 0.0 | 2.0 | 0.00 | 0.01 | 0.01 | 91 | 1010.7 |
| 20260904103525 | 62 | 0 | 0.0 | 1.0 | 0.00 | 0.01 | 0.01 | 91 | 1010.6 |
| 20260904102626 | 62 | 0 | 0.0 | 0.0 | 0.00 | 0.01 | 0.01 | 91 | 1010.5 |
| 20260904100825 | 62 | 0 | 0.0 | 1.0 | 0.00 | 0.01 | 0.01 | 91 | 1010.5 |
| 20260904095925 | 62 | 0 | 0.0 | 1.0 | 0.00 | 0.01 | 0.01 | 91 | 1010.5 |
| 20260904095025 | 62 | 0 | 0.0 | 1.0 | 0.00 | 0.01 | 0.01 | 91 | 1010.4 |
| 20260904094125 | 62 | 0 | 0.0 | 1.0 | 0.00 | 0.01 | 0.01 | 92 | 1010.3 |
| 20260904092325 | 62 | 0 | 0.0 | 1.0 | 0.00 | 0.01 | 0.01 | 92 | 1010.4 |
| 20260904090525 | 63 | 0 | 0.0 | 2.0 | 0.00 | 0.01 | 0.01 | 92 | 1010.5 |
| 20260904085625 | 63 | 0 | 0.0 | 2.0 | 0.00 | 0.01 | 0.01 | 92 | 1010.5 |
| 20260904084725 | 63 | 0 | 0.0 | 3.0 | 0.00 | 0.01 | 0.01 | 92 | 1010.5 |
| 20260904083825 | 63 | 0 | 0.0 | 1.0 | 0.00 | 0.01 | 0.01 | 92 | 1010.6 |
| 20260904082025 | 63 | 0 | 0.0 | 1.0 | 0.01 | 0.01 | 0.01 | 92 | 1010.6 |
| 20260904081126 | 63 | 0 | 0.0 | 1.0 | 0.01 | 0.01 | 0.01 | 91 | 1010.6 |
| 20260904080225 | 63 | 0 | 0.0 | 1.0 | 0.01 | 0.01 | 0.01 | 91 | 1010.6 |
| 20260904075325 | 63 | 129 | 1.0 | 2.0 | 0.01 | 0.01 | 0.01 | 91 | 1010.6 |
| 20260904073525 | 64 | 96 | 1.0 | 5.0 | 0.01 | 0.01 | 0.01 | 89 | 1010.4 |
| 20260904072625 | 65 | 123 | 1.0 | 2.0 | 0.00 | 0.00 | 0.00 | 88 | 1010.5 |
| 20260904071725 | 65 | 0 | 0.0 | 3.0 | 0.00 | 0.00 | 0.00 | 87 | 1010.5 |
| 20260904070825 | 65 | 0 | 0.0 | 0.0 | 0.00 | 0.00 | 0.00 | 87 | 1010.6 |
| 20260904065925 | 65 | 0 | 0.0 | 0.0 | 0.00 | 0.00 | 0.00 | 86 | 1010.5 |
| 20260904064125 | 65 | 0 | 0.0 | 0.0 | 0.00 | 0.00 | 0.00 | 86 | 1010.6 |
| 20260904063225 | 65 | 0 | 0.0 | 0.0 | 0.00 | 0.00 | 0.00 | 86 | 1010.5 |
| 20260904062325 | 65 | 0 | 0.0 | 1.0 | 0.00 | 0.00 | 0.00 | 85 | 1010.5 |
| 20260904061425 | 65 | 0 | 0.0 | 1.0 | 0.00 | 0.00 | 0.00 | 85 | 1010.6 |
| 20260904060525 | 65 | 0 | 0.0 | 1.0 | 0.00 | 0.00 | 0.00 | 84 | 1010.6 |
| 20260904055626 | 65 | 0 | 0.0 | 0.0 | 0.00 | 0.00 | 0.00 | 85 | 1010.6 |
| 20260904054725 | 65 | 0 | 0.0 | 1.0 | 0.00 | 0.00 | 0.00 | 85 | 1010.6 |
| 20260904053826 | 65 | 0 | 0.0 | 3.0 | 0.00 | 0.00 | 0.00 | 85 | 1010.6 |
| 20260904052025 | 65 | 0 | 0.0 | 2.0 | 0.00 | 0.00 | 0.00 | 85 | 1010.8 |
| 20260904051125 | 65 | 0 | 0.0 | 2.0 | 0.00 | 0.00 | 0.00 | 85 | 1010.8 |
| 20260904050225 | 65 | 0 | 0.0 | 2.0 | 0.00 | 0.00 | 0.00 | 84 | 1010.7 |
| 20260904045325 | 65 | 0 | 0.0 | 1.0 | 0.00 | 0.00 | 0.00 | 85 | 1010.8 |
| 20260904044425 | 65 | 0 | 0.0 | 1.0 | 0.00 | 0.00 | 0.00 | 84 | 1010.8 |
| 20260904043525 | 65 | 0 | 0.0 | 1.0 | 0.00 | 0.00 | 0.00 | 85 | 1010.7 |
| 20260904042625 | 65 | 0 | 0.0 | 1.0 | 0.00 | 0.00 | 0.00 | 85 | 1010.7 |
| 20260904040825 | 65 | 0 | 0.0 | 0.0 | 0.00 | 0.00 | 0.00 | 85 | 1010.8 |
| 20260904035925 | 65 | 0 | 0.0 | 0.0 | 0.00 | 0.00 | 0.00 | 85 | 1010.7 |
| 20260904035026 | 65 | 286 | 0.0 | 1.0 | 0.00 | 0.00 | 0.00 | 83 | 1010.6 |
| 20260904034125 | 66 | 296 | 1.0 | 2.0 | 0.00 | 0.00 | 0.00 | 82 | 1010.7 |
| 20260904031425 | 67 | 279 | 1.0 | 4.0 | 0.00 | 0.00 | 0.00 | 77 | 1010.4 |
| 20260904030525 | 67 | 273 | 1.0 | 3.0 | 0.00 | 0.00 | 0.00 | 76 | 1010.4 |
| 20260904025625 | 68 | 285 | 1.0 | 3.0 | 0.00 | 0.00 | 0.00 | 76 | 1010.4 |
| 20260904024725 | 68 | 278 | 1.0 | 4.0 | 0.00 | 0.00 | 0.00 | 75 | 1010.5 |
| 20260904023825 | 69 | 280 | 1.0 | 3.0 | 0.00 | 0.00 | 0.00 | 74 | 1010.5 |
| 20260904022925 | 70 | 223 | 1.0 | 4.0 | 0.00 | 0.00 | 0.00 | 75 | 1010.6 |
| 20260904022026 | 70 | 213 | 1.0 | 5.0 | 0.00 | 0.00 | 0.00 | 75 | 1010.5 |
| 20260904021125 | 70 | 214 | 1.0 | 4.0 | 0.00 | 0.00 | 0.00 | 75 | 1010.5 |
| 20260904015326 | 70 | 220 | 1.0 | 5.0 | 0.00 | 0.00 | 0.00 | 74 | 1010.5 |
| 20260904014425 | 71 | 217 | 2.0 | 5.0 | 0.00 | 0.00 | 0.00 | 73 | 1010.5 |
| 20260904013525 | 71 | 217 | 1.0 | 5.0 | 0.00 | 0.00 | 0.00 | 73 | 1010.6 |
| 20260904012625 | 71 | 200 | 1.0 | 4.0 | 0.00 | 0.00 | 0.00 | 73 | 1010.7 |
| 20260904011726 | 71 | 221 | 2.0 | 8.0 | 0.00 | 0.00 | 0.00 | 72 | 1010.6 |
| 20260904010825 | 72 | 224 | 2.0 | 7.0 | 0.00 | 0.00 | 0.00 | 71 | 1010.6 |
| 20260904005925 | 72 | 224 | 2.0 | 6.0 | 0.00 | 0.00 | 0.00 | 70 | 1010.7 |
| 20260904005025 | 72 | 222 | 2.0 | 5.0 | 0.00 | 0.00 | 0.00 | 71 | 1010.9 |
| 20260904004126 | 72 | 223 | 2.0 | 6.0 | 0.00 | 0.00 | 0.00 | 71 | 1010.8 |
| 20260904003225 | 72 | 216 | 3.0 | 5.0 | 0.00 | 0.00 | 0.00 | 70 | 1010.8 |
| 20260904002325 | 72 | 219 | 3.0 | 8.0 | 0.00 | 0.00 | 0.00 | 69 | 1010.7 |
| 20260904001425 | 73 | 217 | 3.0 | 7.0 | 0.00 | 0.00 | 0.00 | 69 | 1010.7 |
| 20260904000525 | 73 | 221 | 3.0 | 9.0 | 0.00 | 0.00 | 0.00 | 68 | 1010.7 |
| 20260903235626 | 73 | 224 | 4.0 | 9.0 | 0.00 | 0.00 | 0.00 | 68 | 1010.6 |
| 20260903233825 | 74 | 226 | 3.0 | 8.0 | 0.00 | 0.00 | 0.00 | 66 | 1010.8 |
| 20260903232925 | 74 | 222 | 3.0 | 10.0 | 0.00 | 0.00 | 0.00 | 66 | 1010.9 |
| 20260903232025 | 75 | 218 | 3.0 | 12.0 | 0.00 | 0.00 | 0.00 | 66 | 1011.0 |
| 20260903231125 | 75 | 226 | 3.0 | 7.0 | 0.00 | 0.00 | 0.00 | 66 | 1011.1 |
| 20260903230225 | 75 | 219 | 3.0 | 9.0 | 0.00 | 0.00 | 0.00 | 66 | 1011.2 |
| 20260903224426 | 74 | 223 | 4.0 | 12.0 | 0.00 | 0.00 | 0.00 | 65 | 1011.3 |
| 20260903223525 | 75 | 222 | 3.0 | 10.0 | 0.00 | 0.00 | 0.00 | 65 | 1011.4 |
| 20260903222625 | 75 | 201 | 2.0 | 7.0 | 0.00 | 0.00 | 0.00 | 64 | 1011.4 |
| 20260903220825 | 76 | 215 | 2.0 | 8.0 | 0.00 | 0.00 | 0.00 | 64 | 1011.5 |
| 20260903214125 | 76 | 213 | 2.0 | 5.0 | 0.00 | 0.00 | 0.00 | 64 | 1011.9 |
| 20260903213225 | 75 | 209 | 2.0 | 6.0 | 0.00 | 0.00 | 0.00 | 64 | 1012.0 |
| 20260903212325 | 76 | 219 | 2.0 | 6.0 | 0.00 | 0.00 | 0.00 | 64 | 1012.1 |
| 20260903211425 | 76 | 227 | 3.0 | 9.0 | 0.00 | 0.00 | 0.00 | 64 | 1012.2 |
| 20260903210526 | 75 | 220 | 3.0 | 11.0 | 0.00 | 0.00 | 0.00 | 64 | 1012.2 |
| 20260903205625 | 75 | 215 | 3.0 | 11.0 | 0.00 | 0.00 | 0.00 | 65 | 1012.2 |
| 20260903204726 | 75 | 222 | 2.0 | 6.0 | 0.00 | 0.00 | 0.00 | 65 | 1012.3 |
| 20260903202926 | 74 | 221 | 2.0 | 10.0 | 0.00 | 0.00 | 0.00 | 65 | 1012.3 |
| 20260903202025 | 75 | 210 | 3.0 | 6.0 | 0.00 | 0.00 | 0.00 | 65 | 1012.4 |
| 20260903200225 | 74 | 215 | 3.0 | 7.0 | 0.00 | 0.00 | 0.00 | 66 | 1012.4 |
| 20260903195326 | 75 | 218 | 3.0 | 10.0 | 0.00 | 0.00 | 0.00 | 65 | 1012.5 |
| 20260903194425 | 76 | 217 | 2.0 | 6.0 | 0.00 | 0.00 | 0.00 | 63 | 1012.5 |